TimeEDT,TemperatureF,Dew PointF,Humidity,Sea Level PressureIn,VisibilityMPH,Wind Direction,Wind SpeedMPH,Gust SpeedMPH,PrecipitationIn,Events,Conditions,WindDirDegrees,DateUTC
12:23 AM,73.4,69.8,88,29.96,10.0,SSW,5.8,-,N/A,Thunderstorm,Mostly Cloudy,210,2013-07-10 04:23:00
12:53 AM,73.9,70.0,87,29.93,10.0,SW,6.9,-,N/A,Thunderstorm,Thunderstorm,220,2013-07-10 04:53:00
1:05 AM,73.4,69.8,88,29.95,10.0,SW,5.8,-,N/A,,Scattered Clouds,230,2013-07-10 05:05:00
1:45 AM,73.4,69.8,88,29.95,7.0,SW,13.8,-,0.02,Rain-Thunderstorm,Light Thunderstorms and Rain,220,2013-07-10 05:45:00
1:53 AM,73.0,70.0,90,29.92,7.0,SSW,13.8,-,0.04,Rain-Thunderstorm,Light Thunderstorms and Rain,210,2013-07-10 05:53:00
2:36 AM,71.6,68.0,88,29.92,10.0,SSW,9.2,-,0.04,,Mostly Cloudy,210,2013-07-10 06:36:00
2:49 AM,71.6,69.8,94,29.92,10.0,SSW,9.2,-,0.04,Thunderstorm,Overcast,210,2013-07-10 06:49:00
2:53 AM,72.0,68.0,87,29.91,10.0,SW,10.4,-,0.04,Thunderstorm,Overcast,220,2013-07-10 06:53:00
3:11 AM,71.6,69.8,94,29.92,10.0,SSW,5.8,-,0.01,Rain,Light Rain,210,2013-07-10 07:11:00
3:53 AM,72.0,68.0,87,29.88,8.0,SSW,8.1,-,0.02,Rain,Rain,200,2013-07-10 07:53:00
4:01 AM,71.6,68.0,88,29.90,10.0,SSW,10.4,-,0.00,Rain-Thunderstorm,Light Thunderstorms and Rain,210,2013-07-10 08:01:00
4:15 AM,71.6,69.8,94,29.90,3.0,SSW,13.8,24.2,0.07,Rain-Thunderstorm,Light Rain,200,2013-07-10 08:15:00
4:36 AM,73.4,69.8,88,29.91,10.0,SSW,11.5,-,0.07,,Mostly Cloudy,210,2013-07-10 08:36:00
4:53 AM,72.0,69.1,91,29.88,9.0,SSW,10.4,-,0.07,,Mostly Cloudy,210,2013-07-10 08:53:00
5:32 AM,73.4,69.8,88,29.89,8.0,SSW,10.4,-,N/A,Thunderstorm,Clear,210,2013-07-10 09:32:00
5:53 AM,73.9,70.0,87,29.87,7.0,SSW,9.2,-,N/A,Thunderstorm,Clear,210,2013-07-10 09:53:00
6:37 AM,73.4,71.6,94,29.90,6.0,WNW,3.5,-,N/A,,Mostly Cloudy,300,2013-07-10 10:37:00
6:53 AM,73.9,71.1,91,29.89,5.0,Calm,Calm,-,N/A,,Overcast,0,2013-07-10 10:53:00
7:53 AM,78.1,73.0,84,29.88,7.0,West,9.2,-,N/A,,Partly Cloudy,260,2013-07-10 11:53:00
8:53 AM,80.1,73.9,81,29.89,8.0,West,9.2,-,N/A,,Partly Cloudy,260,2013-07-10 12:53:00
9:53 AM,82.0,73.9,76,29.88,8.0,West,8.1,-,N/A,,Mostly Cloudy,270,2013-07-10 13:53:00
10:53 AM,84.0,75.0,74,29.88,8.0,West,10.4,-,N/A,,Mostly Cloudy,260,2013-07-10 14:53:00
11:00 AM,84.2,75.2,74,29.90,8.0,West,9.2,-,N/A,,Partly Cloudy,260,2013-07-10 15:00:00
11:26 AM,84.2,75.2,74,29.89,8.0,WSW,8.1,-,N/A,,Mostly Cloudy,250,2013-07-10 15:26:00
11:35 AM,84.2,75.2,74,29.89,8.0,WSW,8.1,-,N/A,,Scattered Clouds,240,2013-07-10 15:35:00
11:53 AM,84.9,75.0,72,29.86,9.0,West,6.9,-,N/A,,Scattered Clouds,260,2013-07-10 15:53:00
12:18 PM,86.0,75.2,70,29.87,8.0,WSW,6.9,-,N/A,,Mostly Cloudy,240,2013-07-10 16:18:00
12:26 PM,84.2,75.2,74,29.87,8.0,WSW,8.1,-,N/A,,Mostly Cloudy,250,2013-07-10 16:26:00
12:53 PM,86.0,75.9,72,29.84,8.0,WSW,10.4,-,N/A,,Scattered Clouds,250,2013-07-10 16:53:00
1:03 PM,84.2,75.2,74,29.85,8.0,WSW,9.2,-,N/A,Thunderstorm,Scattered Clouds,240,2013-07-10 17:03:00
1:18 PM,84.2,75.2,74,29.85,7.0,West,8.1,-,0.00,Rain,Light Rain,260,2013-07-10 17:18:00
1:37 PM,84.2,75.2,74,29.84,8.0,WSW,8.1,-,0.00,Thunderstorm,Mostly Cloudy,240,2013-07-10 17:37:00
1:53 PM,84.0,75.0,74,29.83,8.0,WSW,6.9,-,0.00,,Scattered Clouds,250,2013-07-10 17:53:00
2:27 PM,82.4,77.0,84,29.85,7.0,West,5.8,-,N/A,Thunderstorm,Scattered Clouds,270,2013-07-10 18:27:00
2:53 PM,81.0,75.9,85,29.81,4.0,WNW,18.4,24.2,0.01,Rain-Thunderstorm,Light Thunderstorms and Rain,290,2013-07-10 18:53:00
3:00 PM,75.2,68.0,78,29.83,1.8,West,18.4,34.5,0.09,Rain-Thunderstorm,Heavy Thunderstorms and Rain,260,2013-07-10 19:00:00
3:09 PM,71.6,64.4,78,29.85,3.0,SW,10.4,-,0.10,Rain-Thunderstorm,Light Thunderstorms and Rain,230,2013-07-10 19:09:00
3:43 PM,71.6,66.2,83,29.95,3.0,NW,10.4,19.6,0.15,Rain-Thunderstorm,Heavy Thunderstorms and Rain,320,2013-07-10 19:43:00
3:46 PM,71.6,66.2,83,29.96,1.8,NW,10.4,17.3,0.19,Rain-Thunderstorm,Heavy Thunderstorms and Rain,310,2013-07-10 19:46:00
3:53 PM,70.0,66.9,90,29.96,1.2,West,10.4,23.0,0.26,Rain-Thunderstorm,Heavy Thunderstorms and Rain,280,2013-07-10 19:53:00
4:14 PM,69.8,66.2,88,29.93,3.0,WSW,11.5,-,0.11,Rain-Thunderstorm,Thunderstorms and Rain,250,2013-07-10 20:14:00
4:40 PM,69.8,66.2,88,29.89,8.0,West,10.4,-,0.13,Rain,Light Rain,260,2013-07-10 20:40:00
4:53 PM,69.1,66.0,90,29.84,4.0,Variable,4.6,-,0.17,Rain-Thunderstorm,Thunderstorms and Rain,0,2013-07-10 20:53:00
5:30 PM,69.8,66.2,88,29.81,10.0,SSW,11.5,-,0.04,Rain,Light Rain,210,2013-07-10 21:30:00
5:53 PM,70.0,64.9,84,29.85,10.0,WSW,9.2,-,0.04,,Partly Cloudy,240,2013-07-10 21:53:00
6:53 PM,72.0,66.0,81,29.84,10.0,SW,6.9,-,N/A,,Partly Cloudy,220,2013-07-10 22:53:00
7:53 PM,73.0,66.9,81,29.85,10.0,SW,8.1,-,N/A,,Partly Cloudy,220,2013-07-10 23:53:00
8:53 PM,71.1,66.9,87,29.87,10.0,SSW,6.9,-,N/A,,Clear,210,2013-07-11 00:53:00
9:53 PM,70.0,66.9,90,29.88,10.0,SSW,5.8,-,0.00,,Scattered Clouds,200,2013-07-11 01:53:00
10:53 PM,70.0,66.9,90,29.91,10.0,SW,5.8,-,N/A,,Mostly Cloudy,220,2013-07-11 02:53:00
11:53 PM,71.1,66.9,87,29.91,10.0,WSW,4.6,-,N/A,,Mostly Cloudy,240,2013-07-11 03:53:00